Weather History for Waseca, MN

Change the Weather History Date:

Tuesday, January 15, 2013

  Actual Average Record
Temperature  
Mean Temperature 24 °F -  
Max Temperature 33 °F 21 °F 43 °F (1990)
Min Temperature 14 °F 1 °F -33 °F (1963)
Degree Days  
Heating Degree Days 42    
Moisture  
Dew Point 15 °F    
Average Humidity 67    
Maximum Humidity 79    
Minimum Humidity 55    
Precipitation  
Precipitation 0.00 in - - ()
Sea Level Pressure  
Sea Level Pressure 30.15 in    
Wind  
Wind Speed 12 mph (SSW)    
Max Wind Speed 20 mph    
Max Gust Speed 28 mph    
Visibility 10 miles    
Events      
Averages and records for this station are not official NWS values.
T = Trace of Precipitation, MM = Missing Value Source: NWS Daily Summary

Daily Weather History Graph

Daily Weather History Graph

Search for Another Location

Airport:

Trip Planner

Search our weather history database for the weather conditions in past years. The results will help you decide how hot, cold, wet, or windy it might be!

Date:

Astronomy

Jan. 15, 2013 Rise Set
Actual Time 7:45 AM CST 5:02 PM CST
Civil Twilight 7:13 AM CST 5:34 PM CST
Nautical Twilight 6:37 AM CST 6:09 PM CST
Astronomical Twilight 6:03 AM CST 6:44 PM CST
Moon 9:40 AM CST (1/15) 10:04 PM CST (1/15)
Length of Visible Light 10h 20m
Length of Day
9h 16m
Waxing Crescent, 19% of the Moon is Illuminated
Jan 15
Waxing Crescent
Jan 18
First Quarter
Jan 26
Full
Feb 3
Last Quarter
Feb 10
New

Hourly Weather History & Observations

Time (CST) Temp. Windchill Dew Point Humidity Pressure Visibility Wind Dir Wind Speed Gust Speed Precip Events Conditions
12:15 AM 17.6 °F 5.7 °F 10.4 °F 73% 30.30 in 10.0 mi South 10.4 mph - N/A   Clear
12:34 AM 19.4 °F 7.9 °F 12.2 °F 74% 30.29 in 10.0 mi South 10.4 mph - N/A   Clear
12:54 AM 19.4 °F 7.9 °F 12.2 °F 74% 30.29 in 10.0 mi South 10.4 mph - N/A   Clear
1:14 AM 19.4 °F 7.2 °F 12.2 °F 74% 30.28 in 10.0 mi South 11.5 mph - N/A   Clear
1:35 AM 19.4 °F 7.9 °F 12.2 °F 74% 30.28 in 10.0 mi South 10.4 mph - N/A   Clear
1:54 AM 17.6 °F 5.7 °F 10.4 °F 73% 30.28 in 10.0 mi South 10.4 mph - N/A   Clear
2:14 AM 19.4 °F 7.9 °F 10.4 °F 68% 30.28 in 10.0 mi South 10.4 mph - N/A   Clear
2:34 AM 17.6 °F 6.4 °F 10.4 °F 73% 30.27 in 10.0 mi South 9.2 mph - N/A   Clear
2:54 AM 17.6 °F 5.7 °F 10.4 °F 73% 30.27 in 10.0 mi South 10.4 mph - N/A   Clear
3:14 AM 17.6 °F 5.7 °F 10.4 °F 73% 30.27 in 10.0 mi SSW 10.4 mph - N/A   Clear
3:34 AM 19.4 °F 7.9 °F 12.2 °F 74% 30.27 in 10.0 mi South 10.4 mph - N/A   Clear
3:55 AM 17.6 °F 5.7 °F 10.4 °F 73% 30.26 in 10.0 mi South 10.4 mph - N/A   Clear
4:14 AM 17.6 °F 6.4 °F 10.4 °F 73% 30.25 in 10.0 mi SSW 9.2 mph - N/A   Clear
4:54 AM 17.6 °F 8.2 °F 8.6 °F 68% 30.25 in 10.0 mi SSW 6.9 mph - N/A   Clear
5:14 AM 17.6 °F 7.3 °F 8.6 °F 68% 30.25 in 10.0 mi SSW 8.1 mph - N/A   Clear
5:34 AM 17.6 °F 8.2 °F 8.6 °F 68% 30.25 in 10.0 mi SSW 6.9 mph - N/A   Clear
5:54 AM 14.0 °F 5.1 °F 8.6 °F 79% 30.25 in 10.0 mi SSW 5.8 mph - N/A   Clear
6:15 AM 15.8 °F 6.1 °F 8.6 °F 73% 30.24 in 10.0 mi SSW 6.9 mph - N/A   Clear
6:34 AM 15.8 °F 6.1 °F 8.6 °F 73% 30.24 in 10.0 mi South 6.9 mph - N/A   Clear
6:54 AM 17.6 °F 7.3 °F 10.4 °F 73% 30.24 in 10.0 mi SSW 8.1 mph - N/A   Mostly Cloudy
7:15 AM 19.4 °F 8.6 °F 12.2 °F 74% 30.24 in 10.0 mi SSW 9.2 mph - N/A   Overcast
7:34 AM 19.4 °F 10.4 °F 12.2 °F 74% 30.25 in 10.0 mi SSW 6.9 mph - N/A   Overcast
7:54 AM 17.6 °F 8.2 °F 10.4 °F 73% 30.24 in 10.0 mi South 6.9 mph - N/A   Mostly Cloudy
8:14 AM 17.6 °F 9.3 °F 10.4 °F 73% 30.24 in 10.0 mi South 5.8 mph - N/A   Scattered Clouds
8:34 AM 17.6 °F 9.3 °F 10.4 °F 73% 30.25 in 10.0 mi South 5.8 mph - N/A   Clear
8:55 AM 19.4 °F 9.5 °F 12.2 °F 74% 30.25 in 10.0 mi South 8.1 mph - N/A   Clear
9:14 AM 19.4 °F 9.5 °F 12.2 °F 74% 30.25 in 10.0 mi South 8.1 mph - N/A   Clear
9:34 AM 23.0 °F 12.4 °F 14.0 °F 68% 30.24 in 10.0 mi SSW 10.4 mph - N/A   Clear
9:54 AM 23.0 °F 12.4 °F 14.0 °F 68% 30.24 in 10.0 mi SSW 10.4 mph - N/A   Clear
10:14 AM 24.8 °F 13.4 °F 15.8 °F 69% 30.23 in 10.0 mi SSW 12.7 mph - N/A   Clear
10:35 AM 26.6 °F 15.7 °F 15.8 °F 64% 30.23 in 10.0 mi SSW 12.7 mph - N/A   Clear
10:54 AM 28.4 °F 18.0 °F 17.6 °F 64% 30.22 in 10.0 mi SSW 12.7 mph - N/A   Clear
11:14 AM 28.4 °F 17.5 °F 17.6 °F 64% 30.22 in 10.0 mi SSW 13.8 mph - N/A   Clear
11:34 AM 30.2 °F 19.8 °F 17.6 °F 60% 30.20 in 10.0 mi SSW 13.8 mph - N/A   Clear
11:54 AM 30.2 °F 20.2 °F 17.6 °F 60% 30.19 in 10.0 mi SSW 12.7 mph 18.4 mph N/A   Clear
12:15 PM 32.0 °F 21.6 °F 19.4 °F 60% 30.17 in 10.0 mi SSW 15.0 mph 20.7 mph N/A   Clear
12:34 PM 32.0 °F 20.8 °F 19.4 °F 60% 30.16 in 10.0 mi SSW 17.3 mph 20.7 mph N/A   Clear
12:54 PM 33.8 °F 23.2 °F 21.2 °F 60% 30.15 in 10.0 mi SSW 17.3 mph - N/A   Clear
1:34 PM 33.8 °F 22.8 °F 19.4 °F 56% 30.13 in 10.0 mi SSW 18.4 mph 24.2 mph N/A   Clear
1:54 PM 33.8 °F 22.8 °F 19.4 °F 56% 30.13 in 10.0 mi SSW 18.4 mph - N/A   Clear
2:15 PM 33.8 °F 22.5 °F 19.4 °F 56% 30.12 in 10.0 mi SSW 19.6 mph 23.0 mph N/A   Clear
2:35 PM 33.8 °F 23.2 °F 19.4 °F 56% 30.11 in 10.0 mi SSW 17.3 mph 21.9 mph N/A   Clear
2:54 PM 33.8 °F 22.5 °F 19.4 °F 56% 30.11 in 10.0 mi SSW 19.6 mph 26.5 mph N/A   Clear
3:14 PM 33.8 °F 22.8 °F 19.4 °F 56% 30.10 in 10.0 mi SW 18.4 mph 25.3 mph N/A   Clear
3:35 PM 33.8 °F 23.2 °F 19.4 °F 56% 30.10 in 10.0 mi SSW 17.3 mph - N/A   Clear
3:55 PM 33.8 °F 22.5 °F 19.4 °F 56% 30.09 in 10.0 mi SSW 19.6 mph 27.6 mph N/A   Clear
4:14 PM 33.8 °F 22.8 °F 19.4 °F 56% 30.09 in 10.0 mi SSW 18.4 mph 21.9 mph N/A   Clear
4:35 PM 32.0 °F 21.6 °F 17.6 °F 55% 30.09 in 10.0 mi SSW 15.0 mph 21.9 mph N/A   Clear
4:54 PM 32.0 °F 22.5 °F 19.4 °F 60% 30.09 in 10.0 mi SSW 12.7 mph - N/A   Clear
5:15 PM 30.2 °F 21.3 °F 17.6 °F 60% 30.08 in 10.0 mi South 10.4 mph - N/A   Clear
5:35 PM 28.4 °F 18.5 °F 17.6 °F 64% 30.08 in 10.0 mi South 11.5 mph - N/A   Clear
5:54 PM 28.4 °F 18.5 °F 17.6 °F 64% 30.07 in 10.0 mi South 11.5 mph - N/A   Clear
6:14 PM 28.4 °F 19.7 °F 17.6 °F 64% 30.07 in 10.0 mi South 9.2 mph - N/A   Clear
6:35 PM 28.4 °F 19.1 °F 17.6 °F 64% 30.07 in 10.0 mi South 10.4 mph - N/A   Clear
6:54 PM 28.4 °F 17.5 °F 19.4 °F 69% 30.05 in 10.0 mi South 13.8 mph - N/A   Clear
7:15 PM 28.4 °F 17.0 °F 17.6 °F 64% 30.05 in 10.0 mi South 15.0 mph - N/A   Clear
7:34 PM 28.4 °F 16.6 °F 17.6 °F 64% 30.04 in 10.0 mi South 16.1 mph - N/A   Clear
7:55 PM 26.6 °F 15.7 °F 17.6 °F 69% 30.04 in 10.0 mi South 12.7 mph - N/A   Clear
8:15 PM 26.6 °F 14.7 °F 17.6 °F 69% 30.02 in 10.0 mi South 15.0 mph - N/A   Clear
8:35 PM 26.6 °F 14.3 °F 17.6 °F 69% 30.01 in 10.0 mi SSW 16.1 mph 21.9 mph N/A   Clear
8:55 PM 26.6 °F 13.8 °F 17.6 °F 69% 29.99 in 10.0 mi South 17.3 mph - N/A   Clear
9:14 PM 26.6 °F 14.3 °F 15.8 °F 64% 29.97 in 10.0 mi South 16.1 mph - N/A   Clear
9:34 PM 26.6 °F 14.3 °F 17.6 °F 69% 29.97 in 10.0 mi South 16.1 mph - N/A   Clear
9:54 PM 26.6 °F 13.8 °F 15.8 °F 64% 29.95 in 10.0 mi South 17.3 mph 23.0 mph N/A   Clear
10:14 PM 26.6 °F 13.8 °F 15.8 °F 64% 29.93 in 10.0 mi South 17.3 mph - N/A   Clear
10:35 PM 26.6 °F 13.4 °F 15.8 °F 64% 29.93 in 10.0 mi South 18.4 mph 23.0 mph N/A   Clear
10:54 PM 26.6 °F 13.8 °F 15.8 °F 64% 29.92 in 10.0 mi SSW 17.3 mph - N/A   Clear
11:14 PM 26.6 °F 13.4 °F 15.8 °F 64% 29.91 in 10.0 mi South 18.4 mph - N/A   Clear
11:35 PM 24.8 °F 11.1 °F 15.8 °F 69% 29.90 in 10.0 mi South 18.4 mph - N/A   Clear